Location: Newark
(55.7816°N, 8.2389°E)
Time: 12:27:06
(UTC+00:00)

CUTE 1.7 + AOD 2 - Visible Passes

Search period start: 18 February 2020 00:00
Search period end: 28 February 2020 00:00
Orbit: 593 x 612 km, 97.6° (Epoch: 17 February)

Date Brightness Start Highest point End Pass type
(mag) Time Alt. Az. Time Alt. Az. Time Alt. Az.
18 Feb ? 03:41:21 10° NE 03:44:07 17° E 03:46:51 10° SE visible
18 Feb ? 05:16:13 10° NNE 05:20:27 76° WNW 05:24:39 10° SSW visible
19 Feb ? 03:52:59 10° NE 03:56:13 21° E 03:59:26 10° SE visible
19 Feb ? 05:28:14 10° N 05:32:24 60° WNW 05:36:33 10° SSW visible
20 Feb ? 04:04:44 10° NE 04:08:19 26° E 04:11:51 10° SSE visible
20 Feb ? 05:40:16 10° N 05:44:21 47° WNW 05:48:22 10° SW visible
21 Feb ? 04:16:33 10° NNE 04:20:23 33° E 04:24:11 10° SSE visible
21 Feb ? 05:52:20 10° N 05:56:16 38° WNW 06:00:09 10° SW visible
22 Feb ? 04:28:25 10° NNE 04:32:26 41° E 04:36:25 10° S visible
23 Feb ? 04:40:19 10° NNE 04:44:28 53° E 04:48:34 10° S visible
24 Feb ? 03:18:54 10° ENE 03:19:50 11° E 03:20:45 10° E visible
24 Feb ? 04:52:15 10° NNE 04:56:28 68° ESE 05:00:39 10° S visible
24 Feb ? 17:31:26 10° W 17:32:28 11° W 17:33:30 10° WNW visible
25 Feb ? 03:29:50 10° NE 03:31:59 14° E 03:34:06 10° ESE visible
25 Feb ? 05:04:13 10° NNE 05:08:28 86° E 05:12:40 10° SSW visible
26 Feb ? 03:41:19 10° NE 03:44:07 17° E 03:46:53 10° SE visible
26 Feb ? 05:16:13 10° NNE 05:20:26 75° WNW 05:24:37 10° SSW visible
27 Feb ? 03:52:58 10° NE 03:56:13 21° E 03:59:27 10° SE visible
27 Feb ? 05:28:14 10° N 05:32:23 59° WNW 05:36:30 10° SSW visible
